Flag for China Weather past 2 weeks in Shenzhen, Guangdong, China

Now
86 °F

Passing clouds.


Feels Like: 97 °F
Forecast: 79 / 88 °F
Wind: 13 mph from Southeast

Location: Shenzhen Airport

Current Time: May 26, 2015 at 4:15:28 PM

Latest Report: May 26, 2015 at 3:00 PM


Visibility: N/A

Pressure: 29.74 "Hg

Humidity: 75%

Dew point: 77 °F

Location of ShenzhenLocation

Historic Weather in Shenzhen — Graph

°F

Shenzhen temperature yesterday

Maximum temperature yesterday: 88 °F (at 3:00 PM)
Minimum temperature yesterday: 79 °F (at 1:00 AM)
Average temperature yesterday: 82 °F

Past Weeks' High & Low Weather Summary

 TemperatureHumidityPressure
High88 °F (May 12, 3:00 PM)100% (May 23, 3:00 PM)29.95 "Hg (May 23, 3:00 PM)
Low72 °F (May 11, 6:00 PM)31% (May 12, 2:00 PM)29.65 "Hg (May 23, 2:00 PM)
Average80 °F83%29.77 "Hg
* Reported May 11 3:00 PM — May 26 3:00 PM, Shenzhen, Weather by CustomWeather, © 2015

Note: Actual official high and low records may vary slightly from our data, if they occured in-between our weather recording intervals... More about our weather records

Advertising

Shenzhen weather history for previous 24 hours

 ConditionsComfort  
Time TempWeatherWind HumidityBarometerVisibility
3:00 PM
Tue, May 26
86 °FPassing clouds.13 mph75%29.74 "HgN/A
2:00 PM84 °FPassing clouds.8 mph79%29.74 "HgN/A
1:00 PM82 °FPassing clouds.13 mph79%29.77 "HgN/A
12:00 PM82 °FPassing clouds.13 mph79%29.77 "HgN/A
11:00 AM82 °FScattered clouds.10 mph79%29.77 "HgN/A
10:00 AM82 °FScattered clouds.10 mph89%29.80 "HgN/A
9:00 AM84 °FScattered clouds.10 mph79%29.77 "HgN/A
8:00 AM82 °FPartly sunny.8 mph89%29.77 "HgN/A
7:00 AM82 °FPartly sunny.8 mph89%29.77 "HgN/A
6:00 AM82 °FPartly sunny.8 mph89%29.74 "HgN/A
5:00 AM82 °FPassing clouds.10 mph89%29.74 "HgN/A
4:00 AM82 °FPassing clouds.13 mph89%29.71 "HgN/A
3:00 AM82 °FPartly cloudy.10 mph89%29.74 "HgN/A
2:00 AM82 °FPartly cloudy.6 mph89%29.74 "HgN/A
1:00 AM82 °FPartly cloudy.6 mph89%29.74 "HgN/A
12:00 AM81 °FPassing clouds.6 mph89%29.77 "HgN/A
11:00 PM
Mon, May 25
81 °FPassing clouds.10 mph89%29.77 "HgN/A
10:00 PM81 °FSprinkles. Passing clouds.10 mph89%29.77 "HgN/A
9:00 PM81 °FThunderstorms. Passing clouds.13 mph89%29.77 "HgN/A
8:00 PM82 °FThunderstorms. Passing clouds.3 mph89%29.74 "HgN/A
7:00 PM81 °FRain showers. Passing clouds.8 mph89%29.71 "HgN/A
6:00 PM82 °FSprinkles. Passing clouds.10 mph89%29.71 "HgN/A
5:00 PM84 °FPartly sunny.15 mph79%29.65 "HgN/A
4:00 PM86 °FPassing clouds.15 mph75%29.65 "HgN/A
Weather by CustomWeather, © 2015

See weather overviewHow to use our weather pages